Zurück zum Katalog

NAVSTAR 73

USA 260

AktivNavigationHEO
NORAD 40534·PAYLOAD·🇺🇸 United States

Gestartet Mar 25, 2015 von Cape Canaveral Space Force Station

Loading…

Nächste Überflüge (nächste 24 Stunden)

TLE

AktuellSource: CelesTrak SupGP

Epoche: Sep 17, 2026, 16:38 UTC

1 40534C 15013A   26260.69312500  .00000000  00000+0  00000+0 0  2607
2 40534  53.1576 200.3544 0113152  41.1726 245.0113  2.00570553    11

Verfolge NAVSTAR 73 in Echtzeit mit AllMySat

Download on the App Store